Tracking 34794 objects as of 19-Jul-2026
HD Live streaming from Space Station
objects crossing your sky now

STARLINK-32390

Track STARLINK-32390 now!
10-day predictions
STARLINK-32390 is classified as:


NORAD ID: 61630
Int'l Code: 2024-191K
Perigee: 489.7 km
Apogee: 490.7 km
Inclination: 43.0 °
Period: 94.3 minutes
Semi major axis: 6861 km
RCS: Unknown
Launch date: October 23, 2024
Source: United States (US)
Launch site: AIR FORCE EASTERN TEST RANGE (AFETR)
Your satellite tracking list
Your tracking list is empty




NASA's NSSDC Master Catalog

Two Line Element Set (TLE):
1 61630U 24191K   26199.85305565 -.00000161  00000-0  36478-5 0  9999
2 61630  43.0010 133.9780 0000753 269.2791  90.7975 15.27577958 97591
Source of the keplerian elements: AFSPC